Location: Newark
(22.3145°N, 88.6625°E)
Time: 22:36:05
(UTC+00:00)

Envisat - Pass Details

Date: 24 September 2019
Orbit: 764 x 766 km, 98.1° (Epoch: 14 October)

Event Time Altitude Azimuth Distance (km) Brightness Sun altitude
Rises 13:27:26 0° 202° (SSW) 3,218 6.4 -20.9°
Reaches altitude 10° 13:30:25 10° 220° (SW) 2,295 5.8 -21.6°
Maximum altitude 13:33:50 18° 263° (W) 1,797 5.8 -22.4°
Drops below altitude 10° 13:37:15 10° 306° (NW) 2,300 6.3 -23.2°
Sets 13:40:16 0° 325° (NW) 3,228 6.9 -23.9°
